Regional Weather Roundup
Issued by NWS Charleston, SC

Current Version | Previous Version | Graphics & Text | Print | Product List | Glossary Off
Versions: 1 2 3 4 5 6 7 8 9 10 11 12 13 14 15 16 17 18 19 20 21 22 23 24 25 26 27 28 29 30 31 32 33 34 35 36 37 38 39 40 41 42 43 44 45 46 47 48 49 50
000 ASUS42 KCHS 062212 RWRCHS REGIONAL WEATHER ROUNDUP NATIONAL WEATHER SERVICE CHARLESTON SC 500 PM EST FRI MAR 06 2015 NOTE: "FAIR" INDICATES FEW OR NO CLOUDS BELOW 12,000 FEET WITH NO SIGNIFICANT WEATHER AND/OR OBSTRUCTIONS TO VISIBILITY. NOT ALL STATIONS ARE QUALITY CONTROLLED BY THE NATIONAL WEATHER SERVICE. USE DATA WITH CAUTION...ESPECIALLY DEWPOINT OBSERVATIONS. SCZ027-030-031-034>040-042>050-062300- ...SOUTHEAST SOUTH CAROLINA... CITY SKY/WX TMP DP RH WIND PRES REMARKS N CHARLESTON CLOUDY 47 31 53 N8 30.38R WATERFRONT PRK N/A 45 N/A N/A N9 N/A MOUNT PLEASANT CLOUDY 46 34 61 CALM 30.38R PINOPOLIS N/A 46 32 57 N7 30.31R MONCKS CORNER CLOUDY 46 32 57 N5 30.38R SUMMERVILLE CLOUDY 46 34 61 N9 30.39R BEAUFORT MCAS CLOUDY 47 35 63 N10 30.38S BEAUFORT ARPT CLOUDY 45 39 81 CALM 30.38S HILTON HEAD IS PTSUNNY 45 37 76 N9 30.39R WALTERBORO CLOUDY 48 34 57 N7 30.39R ALLENDALE CLOUDY 48 34 57 N8 30.38R ...SOUTHERN MIDLANDS AND PEE DEE... CITY SKY/WX TMP DP RH WIND PRES REMARKS GEORGETOWN NOT AVBL KINGSTREE NOT AVBL ORANGEBURG PTSUNNY 49 30 48 VRB3 30.38S BARNWELL MOCLDY 48 34 57 NE3 30.39S AIKEN FAIR 46 27 46 N7 30.40S MANNING CLOUDY N/A N/A N/A N8 30.39R COLUMBIA MOSUNNY 49 26 41 W8 30.38S SUMTER SUNNY 48 26 41 N7 30.36S FLORENCE SUNNY 46 22 38 N6 30.39S MYRTLE BEACH CLOUDY 45 23 42 N12 30.40R N MYRTLE BEACH CLOUDY 44 23 43 N10 30.37S $$ GAZ063-065-086>088-099>101-113>116-118-119-134>141-150-062300- ...SOUTHEAST GEORGIA... CITY SKY/WX TMP DP RH WIND PRES REMARKS SAVANNAH ARPT CLOUDY 47 35 63 N9 30.38R HUNTER AAF CLOUDY 47 37 68 N6 30.36R FORT STEWART CLOUDY 47 37 68 N7 30.36R STATESBORO CLOUDY 47 38 68 N7 30.39R SYLVANIA CLOUDY 48 38 68 N7 30.39S CLAXTON CLOUDY 46 39 76 N3 30.39R ...CSRA...CENTRAL AND FAR SOUTHEAST GEORGIA... CITY SKY/WX TMP DP RH WIND PRES REMARKS THOMSON SUNNY 52 32 45 NW7 30.42S AUGUSTA-BUSH SUNNY 51 29 42 CALM 30.37F AUGUSTA-DANIEL SUNNY 52 28 39 N7 30.37S SWAINSBORO CLOUDY 52 30 43 N3 30.39S VIDALIA CLOUDY 48 39 71 N5 30.38S EASTMAN CLOUDY 50 40 68 N6 30.41S HAZLEHURST CLOUDY 50 41 70 N8 30.37S ALMA CLOUDY 47 38 71 N6 30.38R WAYCROSS CLOUDY 49 43 81 N10 30.38R JESUP CLOUDY 48 41 76 N5 30.38R BAXLEY CLOUDY 48 39 71 N8 30.37S BRUNSWICK CLOUDY 46 39 76 N6 30.37S SAINT SIMONS CLOUDY 45 38 76 N12 30.36S $$ SCZ027-028-034-036>038-045-046-048>050-GAZ119-141-062300- ...LAKE AND SUPPLEMENTAL COASTAL OBSERVATIONS... STATION/POSITION TIME TEMP WIND PRES WAVE SWELL AIR SEA DIR/SP/G HT/PER HT/PER/DIR (UTC) (F) (DEG/KT/KT) (MB) (FT/S) (FT/S/D) UPR LAKE MARION NOT AVBL WINYAH BAY 2045 43 350/ 5 1027.0 LAKE MURRAY 2100 45 190/ 7/ 9 1028.4S ACE BASIN NERRS NOT AVBL FORT PULASKI 2100 44 54 360/ 7/ 10 1028.8S SAPELO ISLAND 2100 45 10/ 11 1028.0R $$ ANZ835-935-AMZ111-154-330-350-352-354-370-450-454-472-062300- ...C-MAN AND BUOY OBSERVATIONS... STATION/POSITION TIME TEMP WIND PRES WAVE SWELL AIR SEA DIR/SP/G HT/PER HT/PER/DIR (UTC) (F) (DEG/KT/KT) (MB) (FT/S) (FT/S/D) BUOY 41004 2150 44 67 10/ 19/ 25 1027.2R 9/ 7 3/16 BUOY 41008 2150 45 55 10/ 19/ 21 1027.6R 6/ 7 2/ 60/ 9 FOLLY BEACH CMAN 2200 45 20/ 9/ 11 1028.9R CAPERS NEARSHORE 2100 42 50/ 10/ 14 N/A FRIPP NEARSHORE 2100 43 10/ 12/ 16 1027.6R STATION/POSITION TIME TEMP WIND PRES WAVE SWELL AIR SEA DIR/SP/G HT/PER HT/PER/DIR (UTC) (F) (DEG/KT/KT) (MB) (FT/S) (FT/S/D) 5E ST. MARYS GA 2121 53 N/A 7/ 6 2/110/11 FRYING PAN BUOY 2150 40 57 20/ 17/ 23 1028.2R 7/ 7 3/120/10 BUOY 41025 NOT AVBL CAPE LOOKOUT NC 2200 10/ 15/ 18 1028.5R BUOY 41002 2150 63 72 40/ 17/ 21 1021.8F 9/10 7/ 10/10 BUOY 41010 2120 74 75 330/ 8/ 8 1020.9R ST AUGUSTINE FL 2200 49 360/ 33/ 36 1026.0R $$

USA.gov is the U.S. government's official web portal to all federal, state and local government web resources and services.